Tracking 28794 objects as of 19-Apr-2024
HD Live streaming from Space Station
objects crossing your sky now

IRIDIUM 33 DEB

Track IRIDIUM 33 DEB now!
10-day predictions


NORAD ID: 36566
Int'l Code: 1997-051WV
Perigee: 647.4 km
Apogee: 787.5 km
Inclination: 86.4 °
Period: 99.0 minutes
Semi major axis: 7088 km
RCS: 0.0106 m2 (small)
Launch date: September 14, 1997
Source: United States (US)
Launch site: TYURATAM MISSILE AND SPACE COMPLEX (TTMTR)

Note: This is SATELLITE DEBRIS
Your satellite tracking list
Your tracking list is empty




NASA's NSSDC Master Catalog

Two Line Element Set (TLE):
1 36566U 97051WV  24106.18569568  .00127305  00000-0  27403-1 0  9994
2 36566  86.4154  79.3693 0098803   9.5142 350.7905 14.54719495758583
Source of the keplerian elements: AFSPC